Cloud_Cover
100 0 0 0 0 0 0 0 0 0 0 0 0 0 0 0 0 0 65 100 100 100 18 5 13 74 57 2 4 0 42 14 54
91 0 0 0 0 0 0 0 0 0 6 2 99 18 5 5 4 5 5 83 100 100 30 75 95 100 73 22 7 10 4 14 98
0 43 0 0 0 0 0 4 0 2 5 4 3 3 5 5 5 4 5 28 100 98 100 92 100 100 100 13 59 71 86 86 50
0 0 0 0 0 0 0 0 0 5 34 2 27 39 5 5 5 3 16 100 100 43 88 100 100 100 100 80 9 11 95 100 100
5 5 1 0 2 0 0 0 0 0 0 1 48 57 46 66 5 5 77 100 100 100 100 100 100 100 100 86 47 5 16 39 98
0 0 4 42 54 5 9 5 4 0 0 0 0 2 87 44 22 5 93 100 100 100 100 100 100 100 100 65 93 71 100 53 31
0 0 3 5 28 41 59 7 14 5 3 24 96 99 100 99 96 98 100 100 100 100 100 100 100 100 100 100 80 91 95 66 100
0 0 0 5 4 13 94 98 73 99 11 16 5 3 0 3 5 5 9 100 100 100 100 100 100 100 100 100 100 100 6 11 6
1 9 14 91 100 100 97 100 100 99 100 100 75 9 5 0 0 5 5 27 76 100 100 100 100 100 100 100 95 100 32 76 38
10 72 68 86 100 100 100 100 31 5 14 64 5 50 28 80 26 5 5 5 8 88 100 100 100 100 100 100 100 41 5 5 4
64 93 100 100 100 100 80 5 6 23 4 5 5 3 5 35 63 30 5 5 5 5 17 100 100 100 95 78 100 49 60 10 61
100 100 100 100 30 1 0 0 0 0 0 0 0 0 0 5 5 5 5 27 25 6 17 96 99 40 17 38 99 20 5 39 57
100 83 13 9 6 5 5 3 0 0 0 0 0 0 0 0 0 0 2 5 11 5 5 5 5 7 5 5 5 1 1 4 4
96 74 87 86 44 5 5 5 4 0 0 0 0 0 0 0 0 0 0 0 0 0 0 0 0 0 0 2 0 0 1 1 2
49 69 30 5 5 15 10 9 28 20 4 0 0 0 0 0 3 2 0 0 0 0 0 0 0 0 0 0 0 2 4 5 5
48 7 5 5 5 5 5 5 0 1 0 0 0 0 0 0 0 0 0 0 0 0 0 0 0 0 0 0 0 0 2 5 5
0 3 1 0 0 0 0 0 0 0 0 0 0 0 1 0 0 0 0 0 0 0 0 0 3 4 5 5 5 4 0 0 2
0 0 0 0 0 0 0 0 0 0 0 0 0 0 0 0 4 1 0 0 1 3 3 4 4 4 4 5 5 5 5 5 5
0 0 0 0 0 0 0 0 0 0 0 0 0 0 0 0 0 0 0 5 5 5 5 5 5 5 5 5 5 5 5 5 5
0 0 0 0 0 0 0 0 0 0 0 0 0 0 0 0 0 0 0 0 5 5 0 0 5 5 5 5 4 4 5 19 34